AFL527 VTBS-VTSP

Flight info

Callsign AFL527
Flight time 1h 11m
Altitude 30000
Route VANKO Y8 SAVSA
Aircraft A21N/M-SDE2E3FGHIRWXY/LB1

Departure

Time 2026-05-04 05:55
Airport Suvarnabhumi Airport (VTBS)

Arrival

Time 2026-05-04 07:06
Airport Phuket International Airport (VTSP)
Time Latitude Longitude Altitude Speed Heading
2026-05-04 05:33 13.69570 100.74709 14 ft 0 kts 104°
2026-05-04 05:42 13.69571 100.74707 14 ft 1 kts 105°
2026-05-04 05:42 13.69574 100.74693 14 ft 2 kts 104°
2026-05-04 05:42 13.69578 100.74677 14 ft 2 kts 105°
2026-05-04 05:42 13.69582 100.74663 14 ft 2 kts 104°
2026-05-04 05:43 13.69586 100.74648 14 ft 2 kts 105°
2026-05-04 05:43 13.69589 100.74638 14 ft 2 kts 104°
2026-05-04 05:43 13.69589 100.74622 14 ft 2 kts 73°
2026-05-04 05:45 13.69557 100.74594 14 ft 0 kts 13°
2026-05-04 05:47 13.69610 100.74607 14 ft 5 kts 13°
2026-05-04 05:47 13.69651 100.74618 14 ft 7 kts 12°
2026-05-04 05:47 13.69700 100.74631 14 ft 8 kts 15°
2026-05-04 05:48 13.69756 100.74645 14 ft 9 kts
2026-05-04 05:48 13.69819 100.74631 14 ft 10 kts 315°
2026-05-04 05:48 13.69848 100.74560 14 ft 12 kts 287°
2026-05-04 05:48 13.69895 100.74489 13 ft 12 kts 343°
2026-05-04 05:49 13.69991 100.74509 11 ft 15 kts 15°
2026-05-04 05:49 13.70095 100.74536 11 ft 14 kts 14°
2026-05-04 05:49 13.70185 100.74560 11 ft 11 kts 14°
2026-05-04 05:49 13.70246 100.74574 11 ft 8 kts
2026-05-04 05:51 13.70333 100.74451 11 ft 0 kts 285°
2026-05-04 05:51 13.70334 100.74450 11 ft 0 kts 285°
2026-05-04 05:52 13.70336 100.74442 11 ft 1 kts 285°
2026-05-04 05:52 13.70340 100.74427 11 ft 2 kts 285°
2026-05-04 05:52 13.70345 100.74406 11 ft 3 kts 281°
2026-05-04 05:52 13.70346 100.74376 11 ft 4 kts 265°
2026-05-04 05:53 13.70334 100.74345 11 ft 5 kts 241°
2026-05-04 05:54 13.67974 100.73699 568 ft 159 kts 193°
2026-05-04 05:55 13.66907 100.73442 1169 ft 162 kts 192°
2026-05-04 05:55 13.65784 100.73180 1735 ft 171 kts 191°
2026-05-04 05:55 13.64659 100.72927 2261 ft 162 kts 190°
2026-05-04 05:55 13.63540 100.72684 2569 ft 165 kts 189°
2026-05-04 05:56 13.62379 100.72444 2705 ft 182 kts 189°
2026-05-04 05:56 13.60953 100.72169 2752 ft 224 kts 189°
2026-05-04 05:56 13.59460 100.71841 3614 ft 228 kts 195°
2026-05-04 05:56 13.57890 100.71289 4262 ft 246 kts 198°
2026-05-04 05:57 13.56212 100.70703 4906 ft 264 kts 196°
2026-05-04 05:57 13.54424 100.70150 5646 ft 278 kts 194°
2026-05-04 05:57 13.52613 100.69414 6590 ft 285 kts 210°
2026-05-04 05:57 13.51081 100.68102 7570 ft 290 kts 226°
2026-05-04 05:58 13.49767 100.66565 8449 ft 295 kts 229°
2026-05-04 05:58 13.48427 100.64938 9186 ft 306 kts 229°
2026-05-04 05:58 13.47002 100.63216 9672 ft 325 kts 229°
2026-05-04 05:58 13.45461 100.61376 9891 ft 352 kts 228°
2026-05-04 05:59 13.43829 100.59443 9894 ft 360 kts 228°
2026-05-04 05:59 13.42219 100.57537 9903 ft 342 kts 228°
2026-05-04 05:59 13.40690 100.55739 9883 ft 325 kts 226°
2026-05-04 05:59 13.39145 100.54104 9861 ft 316 kts 222°
2026-05-04 06:00 13.37512 100.52595 10126 ft 313 kts 220°
2026-05-04 06:00 13.35843 100.51105 10336 ft 327 kts 220°
2026-05-04 06:00 13.34080 100.49534 10586 ft 339 kts 220°
2026-05-04 06:00 13.32295 100.47938 11002 ft 345 kts 220°
2026-05-04 06:01 13.30475 100.46310 11524 ft 347 kts 220°
2026-05-04 06:01 13.28635 100.44659 12015 ft 349 kts 220°
2026-05-04 06:03 13.15568 100.32948 15049 ft 363 kts 221°
2026-05-04 06:03 13.13665 100.31233 15440 ft 365 kts 221°
2026-05-04 06:05 13.00063 100.19029 17862 ft 377 kts 223°
2026-05-04 06:05 12.96332 100.15198 18498 ft 380 kts 226°
2026-05-04 06:05 12.94488 100.13272 18816 ft 382 kts 226°
2026-05-04 06:06 12.92605 100.11304 19123 ft 383 kts 226°
2026-05-04 06:06 12.90750 100.09370 19432 ft 385 kts 226°
2026-05-04 06:06 12.88856 100.07400 19724 ft 386 kts 226°
2026-05-04 06:06 12.86971 100.05452 20008 ft 388 kts 226°
2026-05-04 06:07 12.85064 100.03477 20288 ft 390 kts 226°
2026-05-04 06:07 12.83141 100.01485 20564 ft 392 kts 226°
2026-05-04 06:07 12.81237 99.99509 20822 ft 394 kts 226°
2026-05-04 06:07 12.79299 99.97495 21086 ft 395 kts 226°
2026-05-04 06:08 12.77380 99.95499 21338 ft 397 kts 226°
2026-05-04 06:08 12.75427 99.93470 21598 ft 399 kts 226°
2026-05-04 06:08 12.73477 99.91443 21865 ft 401 kts 226°
2026-05-04 06:08 12.71499 99.89387 22128 ft 402 kts 226°
2026-05-04 06:09 12.69539 99.87350 22375 ft 404 kts 226°
2026-05-04 06:09 12.67578 99.85313 22638 ft 405 kts 226°
2026-05-04 06:11 12.50993 99.75938 24314 ft 415 kts 180°
2026-05-04 06:11 12.48091 99.75960 24525 ft 416 kts 180°
2026-05-04 06:13 12.27624 99.76037 26019 ft 422 kts 181°
2026-05-04 06:14 12.09779 99.76055 27124 ft 428 kts 180°
2026-05-04 06:14 12.06814 99.76057 27303 ft 429 kts 180°
2026-05-04 06:15 12.03807 99.76061 27484 ft 430 kts 180°
2026-05-04 06:15 12.00786 99.76065 27662 ft 431 kts 180°
2026-05-04 06:15 11.97811 99.76067 27829 ft 432 kts 180°
2026-05-04 06:15 11.94804 99.76070 27992 ft 433 kts 180°
2026-05-04 06:16 11.91762 99.76074 28161 ft 433 kts 180°
2026-05-04 06:16 11.88721 99.76078 28336 ft 434 kts 180°
2026-05-04 06:16 11.85695 99.76081 28508 ft 435 kts 180°
2026-05-04 06:16 11.82669 99.76086 28674 ft 435 kts 180°
2026-05-04 06:17 11.79614 99.76089 28831 ft 437 kts 180°
2026-05-04 06:17 11.76586 99.76092 28970 ft 438 kts 180°
2026-05-04 06:17 11.73521 99.76095 29107 ft 439 kts 180°
2026-05-04 06:17 11.70437 99.76097 29238 ft 441 kts 180°
2026-05-04 06:18 11.67381 99.76099 29367 ft 442 kts 180°
2026-05-04 06:18 11.64285 99.76102 29509 ft 444 kts 180°
2026-05-04 06:18 11.61179 99.76105 29662 ft 444 kts 180°
2026-05-04 06:20 11.39462 99.76128 29835 ft 445 kts 180°
2026-05-04 06:21 11.23915 99.76148 29838 ft 446 kts 180°
2026-05-04 06:22 11.17717 99.75990 29837 ft 445 kts 185°
2026-05-04 06:25 10.76671 99.64428 29850 ft 434 kts 197°
2026-05-04 06:26 10.70879 99.62618 29855 ft 434 kts 197°
2026-05-04 06:26 10.65108 99.60815 29853 ft 434 kts 197°
2026-05-04 06:27 10.50649 99.56298 29851 ft 434 kts 197°
2026-05-04 06:28 10.44837 99.54482 29855 ft 435 kts 197°
2026-05-04 06:28 10.39019 99.52668 29854 ft 436 kts 197°
2026-05-04 06:29 10.33187 99.50848 29850 ft 437 kts 197°
2026-05-04 06:29 10.27387 99.49040 29853 ft 438 kts 197°
2026-05-04 06:30 10.21547 99.47221 29853 ft 438 kts 197°
2026-05-04 06:30 10.18648 99.46317 29841 ft 422 kts 197°
2026-05-04 06:30 10.15866 99.45450 29848 ft 421 kts 197°
2026-05-04 06:31 10.10182 99.43680 29845 ft 432 kts 197°
2026-05-04 06:31 10.04357 99.41867 29843 ft 440 kts 197°
2026-05-04 06:33 9.83964 99.35529 29843 ft 441 kts 197°
2026-05-04 06:34 9.78100 99.33695 29842 ft 441 kts 197°
2026-05-04 06:34 9.72223 99.31848 29563 ft 442 kts 197°
2026-05-04 06:35 9.69270 99.30927 29313 ft 443 kts 197°
2026-05-04 06:36 9.50666 99.25151 27678 ft 438 kts 196°
2026-05-04 06:37 9.48593 99.24506 27463 ft 437 kts 196°
2026-05-04 06:37 9.46087 99.23726 27137 ft 435 kts 196°
2026-05-04 06:37 9.44114 99.23113 26858 ft 433 kts 196°
2026-05-04 06:37 9.42314 99.22553 26585 ft 431 kts 196°
2026-05-04 06:38 9.40595 99.22019 26314 ft 429 kts 196°
2026-05-04 06:38 9.38715 99.21435 26003 ft 427 kts 196°
2026-05-04 06:40 9.24887 99.17150 23681 ft 408 kts 195°
2026-05-04 06:40 9.23249 99.16643 23398 ft 407 kts 195°
2026-05-04 06:40 9.21553 99.16117 23102 ft 405 kts 195°
2026-05-04 06:40 9.19962 99.15623 22816 ft 403 kts 195°
2026-05-04 06:41 9.17515 99.14865 22391 ft 400 kts 195°
2026-05-04 06:41 9.15661 99.14273 22075 ft 399 kts 198°
2026-05-04 06:41 9.14149 99.13663 21816 ft 398 kts 203°
2026-05-04 06:41 9.12659 99.12904 21562 ft 397 kts 208°
2026-05-04 06:42 9.11426 99.12142 21337 ft 396 kts 212°
2026-05-04 06:42 9.09248 99.10490 20921 ft 394 kts 217°
2026-05-04 06:42 9.07108 99.08730 20496 ft 391 kts 218°
2026-05-04 06:44 8.92704 98.96867 17563 ft 374 kts 217°
2026-05-04 06:44 8.90690 98.95219 17151 ft 372 kts 217°
2026-05-04 06:44 8.88673 98.93571 16750 ft 370 kts 217°
2026-05-04 06:45 8.86665 98.91939 16317 ft 369 kts 217°
2026-05-04 06:45 8.84580 98.90475 15830 ft 367 kts 207°
2026-05-04 06:45 8.82282 98.89332 15309 ft 368 kts 202°
2026-05-04 06:45 8.79949 98.88263 14750 ft 370 kts 202°
2026-05-04 06:46 8.77593 98.87173 14173 ft 372 kts 203°
2026-05-04 06:46 8.75248 98.86063 13579 ft 374 kts 204°
2026-05-04 06:46 8.72875 98.84922 12985 ft 376 kts 204°
2026-05-04 06:46 8.70522 98.83778 12399 ft 377 kts 204°
2026-05-04 06:48 8.54699 98.75990 9965 ft 325 kts 204°
2026-05-04 06:48 8.52697 98.75002 9672 ft 319 kts 204°
2026-05-04 06:49 8.50715 98.74026 9384 ft 313 kts 204°
2026-05-04 06:50 8.37460 98.67503 6886 ft 287 kts 204°
2026-05-04 06:51 8.35674 98.66624 6531 ft 286 kts 204°
2026-05-04 06:51 8.33906 98.65753 6215 ft 280 kts 204°
2026-05-04 06:51 8.32202 98.64912 5840 ft 269 kts 204°
2026-05-04 06:51 8.30497 98.64075 5163 ft 273 kts 204°
2026-05-04 06:52 8.28783 98.63234 4478 ft 276 kts 204°
2026-05-04 06:52 8.27089 98.62402 3952 ft 271 kts 204°
2026-05-04 06:52 8.25419 98.61580 3597 ft 259 kts 204°
2026-05-04 06:52 8.23847 98.60802 3376 ft 243 kts 204°
2026-05-04 06:53 8.22380 98.60078 3359 ft 232 kts 204°
2026-05-04 06:53 8.20908 98.59357 3463 ft 233 kts 204°
2026-05-04 06:53 8.19502 98.58662 3516 ft 214 kts 204°
2026-05-04 06:53 8.18215 98.58028 3399 ft 197 kts 204°
2026-05-04 06:54 8.17045 98.57458 3337 ft 176 kts 199°
2026-05-04 06:54 8.15896 98.57373 3300 ft 168 kts 159°
2026-05-04 06:54 8.14816 98.57986 3257 ft 192 kts 134°
2026-05-04 06:54 8.13913 98.59102 3303 ft 215 kts 118°
2026-05-04 06:55 8.13059 98.60466 3346 ft 243 kts 124°
2026-05-04 06:55 8.11984 98.61855 3347 ft 256 kts 127°
2026-05-04 06:55 8.10879 98.63208 3348 ft 242 kts 127°
2026-05-04 06:55 8.09559 98.64362 3350 ft 261 kts 149°
2026-05-04 06:56 8.07935 98.65205 3345 ft 265 kts 144°
2026-05-04 06:57 8.12370 98.71857 3330 ft 232 kts 342°
2026-05-04 06:58 8.13837 98.71175 3326 ft 231 kts 333°
2026-05-04 06:58 8.15083 98.70222 3245 ft 221 kts 313°
2026-05-04 06:58 8.15734 98.68882 3101 ft 211 kts 280°
2026-05-04 06:58 8.15791 98.67423 2889 ft 200 kts 267°
2026-05-04 06:59 8.15622 98.66045 2574 ft 196 kts 262°
2026-05-04 06:59 8.15446 98.64695 2442 ft 197 kts 262°
2026-05-04 06:59 8.15208 98.63326 2445 ft 198 kts 259°
2026-05-04 06:59 8.14976 98.61935 2438 ft 199 kts 262°
2026-05-04 07:01 8.12852 98.52818 2451 ft 188 kts 263°
2026-05-04 07:01 8.12730 98.51505 2454 ft 188 kts 266°
2026-05-04 07:02 8.12638 98.50180 2453 ft 188 kts 266°
2026-05-04 07:02 8.12555 98.48918 2426 ft 172 kts 266°
2026-05-04 07:02 8.12477 98.47757 2421 ft 162 kts 266°
2026-05-04 07:02 8.12398 98.46622 2437 ft 162 kts 266°
2026-05-04 07:03 8.12319 98.45492 2438 ft 162 kts 266°
2026-05-04 07:03 8.12239 98.44350 2284 ft 162 kts 266°
2026-05-04 07:03 8.12160 98.43240 2073 ft 160 kts 266°
2026-05-04 07:03 8.12081 98.42120 1860 ft 158 kts 266°
2026-05-04 07:04 8.12005 98.41017 1642 ft 157 kts 266°
2026-05-04 07:04 8.11929 98.39924 1434 ft 156 kts 265°
2026-05-04 07:04 8.11852 98.38832 1229 ft 156 kts 266°
2026-05-04 07:04 8.11777 98.37744 1024 ft 155 kts 266°
2026-05-04 07:05 8.11701 98.36656 814 ft 155 kts 266°
2026-05-04 07:05 8.11626 98.35576 611 ft 155 kts 266°
2026-05-04 07:05 8.11553 98.34493 408 ft 155 kts 264°
2026-05-04 07:05 8.11480 98.33409 203 ft 155 kts 263°
2026-05-04 07:06 8.11317 98.31574 61 ft 107 kts 265°
2026-05-04 07:06 8.11259 98.31035 41 ft 49 kts 266°
2026-05-04 07:06 8.11201 98.30785 36 ft 22 kts 216°
2026-05-04 07:07 8.11173 98.30771 36 ft 0 kts 195°
2026-05-04 07:08 8.11074 98.30764 36 ft 7 kts 239°
2026-05-04 07:09 8.11064 98.30724 36 ft 9 kts 262°
2026-05-04 07:09 8.11057 98.30669 36 ft 9 kts 264°
2026-05-04 07:09 8.11050 98.30622 35 ft 8 kts 271°
2026-05-04 07:09 8.11049 98.30563 34 ft 11 kts 264°
2026-05-04 07:10 8.11025 98.30496 33 ft 13 kts 233°
2026-05-04 07:10 8.10974 98.30476 33 ft 13 kts 194°
2026-05-04 07:12 8.10648 98.30486 37 ft 0 kts 104°